This demonstration page uses our WeatherBlox Daily Observations layout. Learn more.

39.92423, -83.80882

Hourly Observations for April 7, 2015

Temp ( °F °C ) Dew Point ( °F °C ) Humidity (%) Winds ( mph kmh ) Pressure ( in mb ) Visibility ( mi km ) Precip ( " mm )
12:56 am 00:56 Cloudy with Mist and Fog 55 12.7 55 12.7 100 100 SE 6 9 30.09 1019 6 9.65604 0 0
1:56 am 01:56 Cloudy with Mist and Fog 54 12.2 54 12.2 100 100 S 5 7 30.09 1019 6 9.65604 0 0
2:56 am 02:56 Cloudy with Mist and Fog 55 12.7 54 12.2 97 97 SSE 5 7 30.09 1019 6 9.65604 0 0
3:56 am 03:56 Mostly Cloudy 56 13.3 54 12.2 93 93 S 8 13 30.06 1018 7 11.26538 0 0
4:56 am 04:56 Cloudy with Mist and Fog 55 12.7 54 12.2 97 97 SSE 7 11 30.05 1018 6 9.65604 0 0
5:06 am 05:06 Cloudy with Thunderstorms 55 13 54 12 94 94 SSW 6 9 30.06 1018 7 11.26538 0 0
5:26 am 05:26 Cloudy with Thunderstorms 55 13 55 13 100 100 S 8 13 30.06 1018 6 9.65604 0.02 0.508
5:39 am 05:39 Cloudy 55 13 55 13 100 100 SSE 8 13 30.03 1017 7 11.26538 0.02 0.508
5:47 am 05:47 Cloudy 55 13 55 13 100 100 S 8 13 30.03 1017 7 11.26538 0.02 0.508
5:56 am 05:56 Cloudy 56 13.3 56 13.3 100 100 S 8 13 30.04 1017 7 11.26538 0.02 0.508
6:15 am 06:15 Cloudy with Light Rain 55 13 55 13 100 100 S 6 9 30.06 1018 6 9.65604 0 0.0254
6:22 am 06:22 Cloudy with Light Thunderstorms 55 13 55 13 100 100 S 7 11 30.06 1018 6 9.65604 0 0.0254
6:56 am 06:56 Cloudy with Mist and Fog 56 13.3 56 13.3 100 100 SSW 3 6 30.05 1018 6 9.65604 0 0.0254
7:10 am 07:10 Cloudy with Mist and Fog 55 13 55 13 100 100 S 6 9 30.06 1018 6 9.65604 0 0
7:34 am 07:34 Cloudy with Light Rain 55 13 55 13 100 100 SE 5 7 30.06 1018 1.75 2.816345 0.07 1.778
7:43 am 07:43 Cloudy with Light Rain 55 13 55 13 100 100 ESE 7 11 30.03 1017 3 4.82802 0.08 2.032
7:56 am 07:56 Cloudy with Mist and Fog 55 12.7 55 12.7 100 100 ESE 5 7 30.04 1017 2.5 4.02335 0.08 2.032
8:06 am 08:06 Cloudy with Mist and Fog 55 13 55 13 100 100 S 8 13 30.06 1018 3 4.82802 0 0.0254
8:56 am 08:56 Cloudy with Mist and Fog 57 13.8 57 13.8 100 100 SSW 8 13 30.07 1018 4 6.43736 0 0.0254
9:28 am 09:28 Cloudy with Mist and Fog 59 15 59 15 100 100 SSW 7 11 30.09 1019 4 6.43736 0 0
9:47 am 09:47 Cloudy with Mist and Fog 61 16 61 16 100 100 SSW 8 13 30.09 1019 4 6.43736 0 0
9:56 am 09:56 Cloudy with Mist and Fog 60 15.5 60 15.5 100 100 SSW 8 13 30.09 1019 4 6.43736 0 0
10:56 am 10:56 Cloudy with Mist and Fog 60 15.5 60 15.5 100 100 S 6 9 30.07 1018 4 6.43736 0 0
11:40 am 11:40 Cloudy with Light Rain 61 16 61 16 100 100 SSE 8 13 30.09 1019 2.5 4.02335 0.01 0.254
11:56 am 11:56 Cloudy with Mist and Fog 61 16.1 61 16.1 100 100 SE 6 9 30.08 1019 3 4.82802 0.01 0.254
12:08 pm 12:08 Cloudy with Light Rain 61 16 61 16 100 100 SSE 6 9 30.09 1019 2 3.21868 0.01 0.254
12:25 pm 12:25 Cloudy with Rain 63 17 63 17 100 100 SSE 5 7 30.09 1019 1 1.60934 0.09 2.286
12:29 pm 12:29 Cloudy with Heavy Rain 63 17 63 17 100 100 SE 5 7 30.06 1018 0.5 0.80467 0.11 2.794
12:35 pm 12:35 Cloudy with Light Rain 63 17 63 17 100 100 SSE 6 9 30.06 1018 1 1.60934 0.11 2.794
12:37 pm 12:37 Cloudy with Light Rain 63 17 63 17 100 100 SSE 7 11 30.06 1018 2 3.21868 0.11 2.794
12:45 pm 12:45 Cloudy with Mist and Fog 63 17 63 17 100 100 SSE 8 13 30.06 1018 4 6.43736 0.11 2.794
12:56 pm 12:56 Cloudy with Light Rain 63 17.2 63 17.2 100 100 S 8 13 30.06 1018 4 6.43736 0.11 2.794
1:19 pm 13:19 Cloudy with Mist and Fog 64 18 63 17 94 94 SSE 8 13 30.03 1017 4 6.43736 0 0.0254
1:56 pm 13:56 Cloudy with Mist and Fog 64 17.7 62 16.6 93 93 S 7 11 30.06 1018 5 8.0467 0 0.0254
2:07 pm 14:07 Cloudy with Mist and Fog 64 18 63 17 94 94 S 8 13 30.03 1017 3 4.82802 0 0
2:14 pm 14:14 Cloudy with Mist and Fog 64 18 63 17 94 94 S 8 13 30.03 1017 3 4.82802 0 0
2:56 pm 14:56 Cloudy with Mist and Fog 63 17.2 62 16.6 96 96 S 6 9 30.06 1018 2.5 4.02335 0 0
3:00 pm 15:00 Cloudy with Rain 63 17 63 17 100 100 S 6 9 30.06 1018 1.25 2.011675 0.03 0.762
3:04 pm 15:04 Cloudy with Light Rain 63 17 63 17 100 100 S 6 9 30.06 1018 0.75 1.207005 0.05 1.27
3:09 pm 15:09 Cloudy with Light Rain 63 17 63 17 100 100 S 5 7 30.06 1018 1 1.60934 0.06 1.524
3:19 pm 15:19 Cloudy with Light Rain 63 17 63 17 100 100 S 3 6 30.06 1018 1.25 2.011675 0.07 1.778
3:25 pm 15:25 Cloudy with Mist and Fog 63 17 63 17 100 100 SSE 6 9 30.06 1018 2 3.21868 0.07 1.778
3:56 pm 15:56 Cloudy with Mist and Fog 63 17.2 63 17.2 100 100 S 5 7 30.04 1017 2 3.21868 0.08 2.032
4:00 pm 16:00 Cloudy with Mist and Fog 63 17 63 17 100 100 S 5 7 30.06 1018 1.25 2.011675 0 0
4:03 pm 16:03 Cloudy with Mist and Fog 63 17 63 17 100 100 S 6 9 30.06 1018 1 1.60934 0 0
4:11 pm 16:11 Cloudy with Mist and Fog 63 17 63 17 100 100 S 3 6 30.03 1017 1.25 2.011675 0.01 0.254
4:19 pm 16:19 Cloudy with Mist and Fog 63 17 63 17 100 100 SSE 5 7 30.03 1017 1.5 2.41401 0.01 0.254
4:25 pm 16:25 Cloudy with Mist and Fog 63 17 63 17 100 100 S 6 9 30.03 1017 2 3.21868 0.01 0.254
4:35 pm 16:35 Cloudy with Mist and Fog 63 17 63 17 100 100 S 6 9 30.03 1017 3 4.82802 0.01 0.254
4:56 pm 16:56 Cloudy with Mist and Fog 63 17.2 63 17.2 100 100 S 6 9 30.03 1017 2.5 4.02335 0.01 0.254
5:47 pm 17:47 Cloudy with Mist and Fog 63 17 63 17 100 100 SSW 6 9 30.06 1018 3 4.82802 0 0
5:56 pm 17:56 Cloudy with Mist and Fog 63 17.2 63 17.2 100 100 S 7 11 30.04 1017 4 6.43736 0 0
6:22 pm 18:22 Mostly Cloudy with Mist and Fog 63 17 63 17 100 100 SSW 7 11 30.06 1018 5 8.0467 0 0
6:56 pm 18:56 Cloudy with Mist and Fog 63 17.2 63 17.2 100 100 SE 3 6 30.01 1016 5 8.0467 0 0
7:22 pm 19:22 Partly Cloudy with Mist and Fog 63 17 63 17 100 100 SE 7 11 30 1016 4 6.43736 0 0
7:56 pm 19:56 Mostly Cloudy with Mist and Fog 62 16.6 62 16.6 100 100 S 7 11 30.03 1017 5 8.0467 0 0
8:56 pm 20:56 Cloudy 63 17.2 62 16.6 96 96 S 6 9 30.02 1017 7 11.26538 0 0
9:56 pm 21:56 Cloudy 62 16.6 61 16.1 97 97 SSE 5 7 30.04 1017 7 11.26538 0 0
10:44 pm 22:44 Cloudy 61 16 61 16 100 100 Calm 30.06 1018 7 11.26538 0 0
10:56 pm 22:56 Cloudy 60 15.5 60 15.5 100 100 SSE 3 6 30.05 1018 7 11.26538 0 0
11:56 pm 23:56 Cloudy with Mist and Fog 59 15 59 15 100 100 ESE 3 6 30.05 1018 5 8.0467 0 0

Powered by AerisWeather